Weather in Dukat

Russia / Magadan District     62°34′30″N   155°22′36″E
temp.,
°C
wind,
m/s
gust,
m/s
humid.,
%
clouds,
%
prec.,
mm/h
press.,
hPa
HPBL,
m
9 may, sun
sun923:00−14wnw229841 0.0 102110
02:00−15wnw119964 0.0 10219
05:00−14w119844 0.0 10219
08:00−7ese11895 0.0 101898
11:00−4sse11788 0.0 1017343
14:00−3se228296 0.0 1016438
17:00−2se1281100 0.0 1016461
20:00−7ese1193100 0.0 101710
10 may, mon
mon1023:00−10ssw1198100 0.0 101910
02:00−10sw1196100 0.0 101910
05:00−10ssw1193100 0.0 101910
08:00−4se1184100 0.0 101788
11:00−2e108099 0.0 1016338
14:00−2ne118479 0.0 1016425
17:00−1ne118261 0.1 1016426
20:00−6nne119472 0.0 101810
11 may, tue
tue1123:00−9wnw119978 0.1 102010
02:00−9wnw119894 0.0 102010
05:00−9nw119799 0.0 102010
08:00−5n119172 0.0 1018136
11:00−3nne118396 0.1 1018523
14:00−2nne2279100 0.1 1017607
17:00−2ne1282100 0.1 1017409
20:00−4ne119298 0.1 101810
12 may, wed
wed1223:00−8nnw119743 0.1 102010
02:00−9nw119746 0.0 102010
05:00−9wnw119658 0.0 102010
08:00−4n229266 0.0 1018152
11:00−2nne338099 0.1 1017781
14:00−1n237699 0.1 1017901
17:00−1n237484 0.1 1016693
20:00−5wnw118815 0.0 101710
13 may, thu
thu1323:00−8w119249 0.0 101810
02:00−8w119253 0.0 101810
05:00−8w119198 0.0 101810
08:00−3ssw11825 0.0 101567
11:00−1sse11775 0.0 1014314
14:000sse23755 0.0 1012401
17:00+1s23725 0.0 1011180
20:00−2sse22775 0.0 101214